User: anonymous   Login
Location: Caltech
(34.1382°N, 118.1253°W)
Time: 15:58:28
(UTC-08:00)
Language:

SEDSat Delta rocket - Orbit

View from above orbital plane
View from above orbital plane
View from above satellite
View from above satellite

Ground track
Ground track

The orbit data is extracted from the following two-line orbital elements,

1 25510U 98061C   16342.53094314 +.00000393 +00000-0 +56760-4 0  9995
2 25510 031.4332 159.4414 0328369 181.5876 282.7619 14.37134522950221
Epoch (UTC): 07 December 2016 12:44:33
Eccentricity: 0.0328369
inclination: 31.4332°
perigee height: 533 km
apogee height: 1002 km
right ascension of ascending node: 159.4414°
argument of perigee: 181.5876°
revolutions per day: 14.37134522
mean anomaly at epoch: 282.7619°
orbit number at epoch: 95022

The dashed part of the orbit path shows where the satellite is in the earth's shadow,  

DLR